{"data":{"norad_id":38861,"intl_designator":"2012-056B","name":"SJ-9B","alt_names":[],"object_type":"PAYLOAD","status":"ACTIVE","operator":null,"country":"PRC","launch_date":"2012-10-14","launch_site_code":"TAISC","launch_vehicle":null,"mission":null,"orbit_class":"UNKNOWN","rcs_meters":0.9993,"size_class":null,"mass_kg":null,"dimensions":null,"purposes":[],"wikipedia_slug":null,"has_3d_model":false,"image_url":null,"decayed_at":null,"tle_current":{"epoch":"2026-05-25T05:33:07.625664Z","epoch_age_seconds":62458,"freshness":"FRESH","line1":"1 38861U 12056B   26145.23133826  .00001818  00000+0  18798-3 0  9999","line2":"2 38861  97.5972 130.1805 0013740 294.4381  65.5404 14.91226110736301","mean_motion":14.9122611,"eccentricity":0.001374,"inclination_deg":97.5972,"raan_deg":130.1805,"arg_perigee_deg":294.4381,"mean_anomaly_deg":65.5404,"bstar":0.00018798,"rev_number":73630,"period_min":96.564832813986,"perigee_km":584.53137949505,"apogee_km":603.69111768217,"semimajor_km":6972.2482485886,"source":"CELESTRAK","updated_at":"2026-05-25T13:37:55.328754Z"}}}